Time,State,Testpoint Value,�o�ߎ���,Reference Value
13:02:46,Approaching Test Point,150,0:00:00,149.042
13:03:01,Approaching Test Point,150,0:00:15,149.458
13:03:16,Approaching Test Point,150,0:00:30,149.717
13:03:31,Approaching Test Point,150,0:00:45,149.795
13:03:46,Approaching Test Point,150,0:01:00,149.9
13:04:01,Approaching Test Point,150,0:01:15,150.009
13:04:16,Approaching Test Point,150,0:01:30,150.003
13:04:31,Approaching Test Point,150,0:01:45,150.024
13:04:46,Approaching Test Point,150,0:02:00,150.053
13:05:01,Approaching Test Point,150,0:02:15,150.036
13:05:16,Approaching Test Point,150,0:02:30,150.035
13:05:31,Approaching Test Point,150,0:02:45,150.04
13:05:46,Approaching Test Point,150,0:03:00,150.025
13:06:01,Approaching Test Point,150,0:03:15,150.023
13:06:16,Stabilising DUT,150,0:03:30,150.022
13:06:31,Stabilising DUT,150,0:03:45,150.014
13:06:46,Stabilising DUT,150,0:04:00,150.011
13:07:01,Stabilising DUT,150,0:04:15,150.01
13:07:16,Stabilising DUT,150,0:04:30,150.005
13:07:31,Stabilising DUT,150,0:04:45,150.004
13:07:46,Stabilising DUT,150,0:05:00,150.003
13:08:01,Stabilising DUT,150,0:05:15,150.002
13:08:16,Stabilising DUT,150,0:05:30,150.001
13:08:31,Stabilising DUT,150,0:05:45,150.002
13:08:46,Stabilising DUT,150,0:06:00,150
13:09:01,Stabilising DUT,150,0:06:15,150
13:09:16,Stabilising DUT,150,0:06:30,150
13:09:31,Stabilising DUT,150,0:06:45,150
13:09:46,Stabilising DUT,150,0:07:00,149.999
13:10:01,Stabilising DUT,150,0:07:15,150
13:10:16,Stabilising DUT,150,0:07:30,149.998
13:10:31,Stabilising DUT,150,0:07:45,149.999
13:10:46,Stabilising DUT,150,0:08:00,149.999
13:11:01,Stabilising DUT,150,0:08:15,150
13:11:16,Stabilising DUT,150,0:08:30,149.999
13:11:31,Stabilising DUT,150,0:08:45,149.998
13:11:46,Stabilising DUT,150,0:09:00,149.999
13:12:01,Stabilising DUT,150,0:09:15,149.999
13:12:16,Stabilising DUT,150,0:09:30,149.999
13:12:31,Stabilising DUT,150,0:09:45,149.999
13:12:46,Stabilising DUT,150,0:10:00,150
13:13:01,Stabilising DUT,150,0:10:15,149.999
13:13:16,Stabilising DUT,150,0:10:30,149.999
13:13:31,Stabilising DUT,150,0:10:45,149.999
13:13:46,Stabilising DUT,150,0:11:00,149.999
13:14:01,Stabilising DUT,150,0:11:15,149.999
13:14:16,Stabilising DUT,150,0:11:30,150
13:14:31,Stabilising DUT,150,0:11:45,149.998
13:14:46,Stabilising DUT,150,0:12:00,149.999
13:15:01,Stabilising DUT,150,0:12:15,150
13:15:16,Stabilising DUT,150,0:12:30,150
13:15:31,Stabilising DUT,150,0:12:45,150
13:15:46,Stabilising DUT,150,0:13:00,149.999
13:16:01,Stabilising DUT,150,0:13:15,150
13:16:16,Calculate mean,150,0:13:30,149.999
13:16:31,Calculate mean,150,0:13:45,149.999
13:16:46,Calculate mean,150,0:14:00,150
13:17:01,Calculate mean,150,0:14:15,150
13:17:16,Approaching Test Point,0,0:14:30,149.997
13:17:31,Approaching Test Point,0,0:14:45,149.664
13:17:46,Approaching Test Point,0,0:15:00,148.67
13:18:01,Approaching Test Point,0,0:15:15,147.103
13:18:16,Approaching Test Point,0,0:15:30,145.172
13:18:31,Approaching Test Point,0,0:15:45,143.161
13:18:46,Approaching Test Point,0,0:16:00,141.196
13:19:01,Approaching Test Point,0,0:16:15,139.178
13:19:16,Approaching Test Point,0,0:16:30,137.249
13:19:31,Approaching Test Point,0,0:16:45,135.253
13:19:46,Approaching Test Point,0,0:17:00,133.419
13:20:01,Approaching Test Point,0,0:17:15,131.536
13:20:16,Approaching Test Point,0,0:17:30,129.712
13:20:31,Approaching Test Point,0,0:17:45,127.962
13:20:46,Approaching Test Point,0,0:18:00,126.141
13:21:01,Approaching Test Point,0,0:18:15,124.504
13:21:16,Approaching Test Point,0,0:18:30,122.811
13:21:31,Approaching Test Point,0,0:18:45,121.128
13:21:46,Approaching Test Point,0,0:19:00,119.47
13:22:01,Approaching Test Point,0,0:19:15,117.834
13:22:16,Approaching Test Point,0,0:19:30,116.216
13:22:31,Approaching Test Point,0,0:19:45,114.625
13:22:46,Approaching Test Point,0,0:20:00,113.05
13:23:01,Approaching Test Point,0,0:20:15,111.495
13:23:16,Approaching Test Point,0,0:20:30,109.963
13:23:31,Approaching Test Point,0,0:20:45,108.455
13:23:46,Approaching Test Point,0,0:21:00,106.95
13:24:01,Approaching Test Point,0,0:21:15,105.508
13:24:16,Approaching Test Point,0,0:21:30,104.01
13:24:31,Approaching Test Point,0,0:21:45,102.545
13:24:46,Approaching Test Point,0,0:22:00,101.148
13:25:01,Approaching Test Point,0,0:22:15,99.737
13:25:16,Approaching Test Point,0,0:22:30,98.375
13:25:31,Approaching Test Point,0,0:22:45,96.941
13:25:46,Approaching Test Point,0,0:23:00,95.662
13:26:01,Approaching Test Point,0,0:23:15,94.274
13:26:16,Approaching Test Point,0,0:23:30,92.936
13:26:31,Approaching Test Point,0,0:23:45,91.643
13:26:46,Approaching Test Point,0,0:24:00,90.34
13:27:01,Approaching Test Point,0,0:24:15,89.081
13:27:16,Approaching Test Point,0,0:24:30,87.761
13:27:31,Approaching Test Point,0,0:24:45,86.542
13:27:46,Approaching Test Point,0,0:25:00,85.28
13:28:01,Approaching Test Point,0,0:25:15,84.042
13:28:16,Approaching Test Point,0,0:25:30,82.884
13:28:31,Approaching Test Point,0,0:25:45,81.681
13:28:46,Approaching Test Point,0,0:26:00,80.491
13:29:01,Approaching Test Point,0,0:26:15,79.312
13:29:16,Approaching Test Point,0,0:26:30,78.147
13:29:31,Approaching Test Point,0,0:26:45,76.995
13:29:46,Approaching Test Point,0,0:27:00,75.855
13:30:01,Approaching Test Point,0,0:27:15,74.731
13:30:16,Approaching Test Point,0,0:27:30,73.612
13:30:31,Approaching Test Point,0,0:27:45,72.507
13:30:46,Approaching Test Point,0,0:28:00,71.403
13:31:01,Approaching Test Point,0,0:28:15,70.327
13:31:16,Approaching Test Point,0,0:28:30,69.281
13:31:31,Approaching Test Point,0,0:28:45,68.218
13:31:46,Approaching Test Point,0,0:29:00,67.198
13:32:01,Approaching Test Point,0,0:29:15,66.128
13:32:16,Approaching Test Point,0,0:29:30,65.144
13:32:31,Approaching Test Point,0,0:29:45,64.117
13:32:46,Approaching Test Point,0,0:30:00,63.107
13:33:01,Approaching Test Point,0,0:30:15,62.139
13:33:16,Approaching Test Point,0,0:30:30,61.122
13:33:31,Approaching Test Point,0,0:30:45,60.211
13:33:46,Approaching Test Point,0,0:31:00,59.217
13:34:01,Approaching Test Point,0,0:31:15,58.265
13:34:16,Approaching Test Point,0,0:31:30,57.35
13:34:31,Approaching Test Point,0,0:31:45,56.418
13:34:46,Approaching Test Point,0,0:32:00,55.529
13:35:01,Approaching Test Point,0,0:32:15,54.62
13:35:16,Approaching Test Point,0,0:32:30,53.722
13:35:31,Approaching Test Point,0,0:32:45,52.832
13:35:46,Approaching Test Point,0,0:33:00,51.952
13:36:01,Approaching Test Point,0,0:33:15,51.074
13:36:16,Approaching Test Point,0,0:33:30,50.218
13:36:31,Approaching Test Point,0,0:33:45,49.381
13:36:46,Approaching Test Point,0,0:34:00,48.525
13:37:01,Approaching Test Point,0,0:34:15,47.692
13:37:16,Approaching Test Point,0,0:34:30,46.866
13:37:31,Approaching Test Point,0,0:34:45,46.05
13:37:46,Approaching Test Point,0,0:35:00,45.262
13:38:01,Approaching Test Point,0,0:35:15,44.437
13:38:16,Approaching Test Point,0,0:35:30,43.673
13:38:31,Approaching Test Point,0,0:35:45,42.886
13:38:46,Approaching Test Point,0,0:36:00,42.102
13:39:01,Approaching Test Point,0,0:36:15,41.356
13:39:16,Approaching Test Point,0,0:36:30,40.574
13:39:31,Approaching Test Point,0,0:36:45,39.864
13:39:46,Approaching Test Point,0,0:37:00,39.1
13:40:01,Approaching Test Point,0,0:37:15,38.364
13:40:16,Approaching Test Point,0,0:37:30,37.65
13:40:31,Approaching Test Point,0,0:37:45,36.934
13:40:46,Approaching Test Point,0,0:38:00,36.237
13:41:01,Approaching Test Point,0,0:38:15,35.504
13:41:16,Approaching Test Point,0,0:38:30,34.831
13:41:31,Approaching Test Point,0,0:38:45,34.164
13:41:46,Approaching Test Point,0,0:39:00,33.484
13:42:01,Approaching Test Point,0,0:39:15,32.809
13:42:16,Approaching Test Point,0,0:39:30,32.141
13:42:31,Approaching Test Point,0,0:39:45,31.486
13:42:46,Approaching Test Point,0,0:40:00,30.828
13:43:01,Approaching Test Point,0,0:40:15,30.183
13:43:16,Approaching Test Point,0,0:40:30,29.543
13:43:31,Approaching Test Point,0,0:40:45,28.914
13:43:46,Approaching Test Point,0,0:41:00,28.295
13:44:01,Approaching Test Point,0,0:41:15,27.67
13:44:16,Approaching Test Point,0,0:41:30,27.062
13:44:31,Approaching Test Point,0,0:41:45,26.446
13:44:46,Approaching Test Point,0,0:42:00,25.849
13:45:01,Approaching Test Point,0,0:42:15,25.266
13:45:16,Approaching Test Point,0,0:42:30,24.656
13:45:31,Approaching Test Point,0,0:42:45,24.107
13:45:46,Approaching Test Point,0,0:43:00,23.509
13:46:01,Approaching Test Point,0,0:43:15,22.964
13:46:16,Approaching Test Point,0,0:43:30,22.388
13:46:31,Approaching Test Point,0,0:43:45,21.828
13:46:46,Approaching Test Point,0,0:44:00,21.29
13:47:01,Approaching Test Point,0,0:44:15,20.726
13:47:16,Approaching Test Point,0,0:44:30,20.214
13:47:31,Approaching Test Point,0,0:44:45,19.659
13:47:46,Approaching Test Point,0,0:45:00,19.128
13:48:01,Approaching Test Point,0,0:45:15,18.619
13:48:16,Approaching Test Point,0,0:45:30,18.101
13:48:31,Approaching Test Point,0,0:45:45,17.604
13:48:46,Approaching Test Point,0,0:46:00,17.1
13:49:01,Approaching Test Point,0,0:46:15,16.601
13:49:16,Approaching Test Point,0,0:46:30,16.109
13:49:31,Approaching Test Point,0,0:46:45,15.622
13:49:46,Approaching Test Point,0,0:47:00,15.14
13:50:01,Approaching Test Point,0,0:47:15,14.66
13:50:16,Approaching Test Point,0,0:47:30,14.186
13:50:31,Approaching Test Point,0,0:47:45,13.715
13:50:46,Approaching Test Point,0,0:48:00,13.248
13:51:01,Approaching Test Point,0,0:48:15,12.787
13:51:16,Approaching Test Point,0,0:48:30,12.329
13:51:31,Approaching Test Point,0,0:48:45,11.885
13:51:46,Approaching Test Point,0,0:49:00,11.418
13:52:01,Approaching Test Point,0,0:49:15,10.99
13:52:16,Approaching Test Point,0,0:49:30,10.545
13:52:31,Approaching Test Point,0,0:49:45,10.109
13:52:46,Approaching Test Point,0,0:50:00,9.69
13:53:01,Approaching Test Point,0,0:50:15,9.247
13:53:16,Approaching Test Point,0,0:50:30,8.843
13:53:31,Approaching Test Point,0,0:50:45,8.42
13:53:46,Approaching Test Point,0,0:51:00,8.011
13:54:01,Approaching Test Point,0,0:51:15,7.612
13:54:16,Approaching Test Point,0,0:51:30,7.208
13:54:31,Approaching Test Point,0,0:51:45,6.819
13:54:46,Approaching Test Point,0,0:52:00,6.409
13:55:01,Approaching Test Point,0,0:52:15,6.036
13:55:16,Approaching Test Point,0,0:52:30,5.647
13:55:31,Approaching Test Point,0,0:52:45,5.275
13:55:46,Approaching Test Point,0,0:53:00,4.898
13:56:01,Approaching Test Point,0,0:53:15,4.526
13:56:16,Approaching Test Point,0,0:53:30,4.159
13:56:31,Approaching Test Point,0,0:53:45,3.792
13:56:46,Approaching Test Point,0,0:54:00,3.431
13:57:01,Approaching Test Point,0,0:54:15,3.073
13:57:16,Approaching Test Point,0,0:54:30,2.72
13:57:31,Approaching Test Point,0,0:54:45,2.376
13:57:46,Approaching Test Point,0,0:55:00,2.026
13:58:01,Approaching Test Point,0,0:55:15,1.686
13:58:16,Approaching Test Point,0,0:55:30,1.345
13:58:31,Approaching Test Point,0,0:55:45,1.008
13:58:46,Approaching Test Point,0,0:56:00,0.684
13:59:01,Approaching Test Point,0,0:56:15,0.37
13:59:16,Approaching Test Point,0,0:56:30,0.22
13:59:31,Approaching Test Point,0,0:56:45,0.215
13:59:46,Approaching Test Point,0,0:57:00,0.12
14:00:01,Approaching Test Point,0,0:57:15,0.014
14:00:16,Approaching Test Point,0,0:57:30,0.04
14:00:31,Approaching Test Point,0,0:57:45,0.006
14:00:46,Approaching Test Point,0,0:58:00,-0.045
14:01:01,Approaching Test Point,0,0:58:15,-0.014
14:01:16,Approaching Test Point,0,0:58:30,-0.015
14:01:31,Approaching Test Point,0,0:58:45,-0.042
14:01:46,Approaching Test Point,0,0:59:00,-0.017
14:02:01,Stabilising DUT,0,0:59:15,-0.016
14:02:16,Stabilising DUT,0,0:59:30,-0.029
14:02:31,Stabilising DUT,0,0:59:45,-0.014
14:02:46,Stabilising DUT,0,1:00:00,-0.011
14:03:01,Stabilising DUT,0,1:00:15,-0.018
14:03:16,Stabilising DUT,0,1:00:30,-0.01
14:03:31,Stabilising DUT,0,1:00:45,-0.008
14:03:46,Stabilising DUT,0,1:01:00,-0.011
14:04:01,Stabilising DUT,0,1:01:15,-0.006
14:04:16,Stabilising DUT,0,1:01:30,-0.006
14:04:31,Stabilising DUT,0,1:01:45,-0.007
14:04:46,Stabilising DUT,0,1:02:00,-0.004
14:05:01,Stabilising DUT,0,1:02:15,-0.004
14:05:16,Stabilising DUT,0,1:02:30,-0.005
14:05:31,Stabilising DUT,0,1:02:45,-0.002
14:05:46,Stabilising DUT,0,1:03:00,-0.003
14:06:01,Stabilising DUT,0,1:03:15,-0.002
14:06:16,Stabilising DUT,0,1:03:30,-0.001
14:06:31,Stabilising DUT,0,1:03:45,-0.002
14:06:46,Stabilising DUT,0,1:04:00,-0.002
14:07:01,Stabilising DUT,0,1:04:15,-0.001
14:07:16,Stabilising DUT,0,1:04:30,-0.002
14:07:31,Stabilising DUT,0,1:04:45,-0.001
14:07:46,Stabilising DUT,0,1:05:00,-0.001
14:08:01,Stabilising DUT,0,1:05:15,-0.001
14:08:16,Stabilising DUT,0,1:05:30,-0.001
14:08:31,Stabilising DUT,0,1:05:45,-0.001
14:08:46,Stabilising DUT,0,1:06:00,-0.001
14:09:01,Stabilising DUT,0,1:06:15,0
14:09:16,Stabilising DUT,0,1:06:30,0
14:09:31,Stabilising DUT,0,1:06:45,0
14:09:46,Stabilising DUT,0,1:07:00,0
14:10:01,Stabilising DUT,0,1:07:15,-0.001
14:10:16,Stabilising DUT,0,1:07:30,0
14:10:31,Stabilising DUT,0,1:07:45,0
14:10:46,Stabilising DUT,0,1:08:00,0
14:11:01,Stabilising DUT,0,1:08:15,0
14:11:16,Stabilising DUT,0,1:08:30,0
14:11:31,Stabilising DUT,0,1:08:45,0
14:11:46,Stabilising DUT,0,1:09:00,0
14:12:01,Calculate mean,0,1:09:15,0.001
14:12:16,Calculate mean,0,1:09:30,0.001
14:12:31,Calculate mean,0,1:09:45,0
14:12:46,Calculate mean,0,1:10:00,0
14:13:01,Starting,100,1:10:15,0
14:13:16,Approaching Test Point,100,1:10:30,0.034
14:13:31,Approaching Test Point,100,1:10:45,0.574
14:13:46,Approaching Test Point,100,1:11:00,1.837
14:14:01,Approaching Test Point,100,1:11:15,3.496
14:14:16,Approaching Test Point,100,1:11:30,5.301
14:14:31,Approaching Test Point,100,1:11:45,7.309
14:14:46,Approaching Test Point,100,1:12:00,9.142
14:15:01,Approaching Test Point,100,1:12:15,11.16
14:15:16,Approaching Test Point,100,1:12:30,13.014
14:15:31,Approaching Test Point,100,1:12:45,14.918
14:15:46,Approaching Test Point,100,1:13:00,16.798
14:16:01,Approaching Test Point,100,1:13:15,18.574
14:16:16,Approaching Test Point,100,1:13:30,20.352
14:16:31,Approaching Test Point,100,1:13:45,22.186
14:16:46,Approaching Test Point,100,1:14:00,24.011
14:17:01,Approaching Test Point,100,1:14:15,25.803
14:17:16,Approaching Test Point,100,1:14:30,27.568
14:17:31,Approaching Test Point,100,1:14:45,29.291
14:17:46,Approaching Test Point,100,1:15:00,30.977
14:18:01,Approaching Test Point,100,1:15:15,32.691
14:18:16,Approaching Test Point,100,1:15:30,34.365
14:18:31,Approaching Test Point,100,1:15:45,36.016
14:18:46,Approaching Test Point,100,1:16:00,37.632
14:19:01,Approaching Test Point,100,1:16:15,39.182
14:19:16,Approaching Test Point,100,1:16:30,40.806
14:19:31,Approaching Test Point,100,1:16:45,42.283
14:19:46,Approaching Test Point,100,1:17:00,43.815
14:20:01,Approaching Test Point,100,1:17:15,45.319
14:20:16,Approaching Test Point,100,1:17:30,46.768
14:20:31,Approaching Test Point,100,1:17:45,48.268
14:20:46,Approaching Test Point,100,1:18:00,49.629
14:21:01,Approaching Test Point,100,1:18:15,51.102
14:21:16,Approaching Test Point,100,1:18:30,52.465
14:21:31,Approaching Test Point,100,1:18:45,53.871
14:21:46,Approaching Test Point,100,1:19:00,55.256
14:22:01,Approaching Test Point,100,1:19:15,56.59
14:22:16,Approaching Test Point,100,1:19:30,57.994
14:22:31,Approaching Test Point,100,1:19:45,59.247
14:22:46,Approaching Test Point,100,1:20:00,60.564
14:23:01,Approaching Test Point,100,1:20:15,61.87
14:23:16,Approaching Test Point,100,1:20:30,63.16
14:23:31,Approaching Test Point,100,1:20:45,64.435
14:23:46,Approaching Test Point,100,1:21:00,65.686
14:24:01,Approaching Test Point,100,1:21:15,66.939
14:24:16,Approaching Test Point,100,1:21:30,68.171
14:24:31,Approaching Test Point,100,1:21:45,69.391
14:24:46,Approaching Test Point,100,1:22:00,70.592
14:25:01,Approaching Test Point,100,1:22:15,71.772
14:25:16,Approaching Test Point,100,1:22:30,72.949
14:25:31,Approaching Test Point,100,1:22:45,74.083
14:25:46,Approaching Test Point,100,1:23:00,75.275
14:26:01,Approaching Test Point,100,1:23:15,76.408
14:26:16,Approaching Test Point,100,1:23:30,77.5
14:26:31,Approaching Test Point,100,1:23:45,78.646
14:26:46,Approaching Test Point,100,1:24:00,79.678
14:27:01,Approaching Test Point,100,1:24:15,80.793
14:27:16,Approaching Test Point,100,1:24:30,81.821
14:27:31,Approaching Test Point,100,1:24:45,82.886
14:27:46,Approaching Test Point,100,1:25:00,83.932
14:28:01,Approaching Test Point,100,1:25:15,84.943
14:28:16,Approaching Test Point,100,1:25:30,85.986
14:28:31,Approaching Test Point,100,1:25:45,86.933
14:28:46,Approaching Test Point,100,1:26:00,87.949
14:29:01,Approaching Test Point,100,1:26:15,88.937
14:29:16,Approaching Test Point,100,1:26:30,89.876
14:29:31,Approaching Test Point,100,1:26:45,90.809
14:29:46,Approaching Test Point,100,1:27:00,91.751
14:30:01,Approaching Test Point,100,1:27:15,92.685
14:30:16,Approaching Test Point,100,1:27:30,93.606
14:30:31,Approaching Test Point,100,1:27:45,94.516
14:30:46,Approaching Test Point,100,1:28:00,95.412
14:31:01,Approaching Test Point,100,1:28:15,96.304
14:31:16,Approaching Test Point,100,1:28:30,97.174
14:31:31,Approaching Test Point,100,1:28:45,98.023
14:31:46,Approaching Test Point,100,1:29:00,98.856
14:32:01,Approaching Test Point,100,1:29:15,99.34
14:32:16,Approaching Test Point,100,1:29:30,99.552
14:32:31,Approaching Test Point,100,1:29:45,99.823
14:32:46,Approaching Test Point,100,1:30:00,99.937
14:33:01,Approaching Test Point,100,1:30:15,99.988
14:33:16,Approaching Test Point,100,1:30:30,100.054
14:33:31,Approaching Test Point,100,1:30:45,100.063
14:33:46,Approaching Test Point,100,1:31:00,100.064
14:34:01,Approaching Test Point,100,1:31:15,100.07
14:34:16,Approaching Test Point,100,1:31:30,100.058
14:34:31,Approaching Test Point,100,1:31:45,100.05
14:34:46,Approaching Test Point,100,1:32:00,100.045
14:35:01,Approaching Test Point,100,1:32:15,100.034
14:35:16,Stabilising DUT,100,1:32:30,100.027
14:35:31,Stabilising DUT,100,1:32:45,100.021
14:35:46,Stabilising DUT,100,1:33:00,100.016
14:36:01,Stabilising DUT,100,1:33:15,100.012
14:36:16,Stabilising DUT,100,1:33:30,100.009
14:36:31,Stabilising DUT,100,1:33:45,100.006
14:36:46,Stabilising DUT,100,1:34:00,100.004
14:37:01,Stabilising DUT,100,1:34:15,100.002
14:37:16,Stabilising DUT,100,1:34:30,100
14:37:31,Stabilising DUT,100,1:34:45,100
14:37:46,Stabilising DUT,100,1:35:00,100
14:38:01,Stabilising DUT,100,1:35:15,99.998
14:38:16,Stabilising DUT,100,1:35:30,99.998
14:38:31,Stabilising DUT,100,1:35:45,99.999
14:38:46,Stabilising DUT,100,1:36:00,99.999
14:39:01,Stabilising DUT,100,1:36:15,99.998
14:39:16,Stabilising DUT,100,1:36:30,99.999
14:39:31,Stabilising DUT,100,1:36:45,99.999
14:39:46,Stabilising DUT,100,1:37:00,99.999
14:40:01,Stabilising DUT,100,1:37:15,99.999
14:40:16,Stabilising DUT,100,1:37:30,99.999
14:40:31,Stabilising DUT,100,1:37:45,99.999
14:40:46,Stabilising DUT,100,1:38:00,99.998
14:41:01,Stabilising DUT,100,1:38:15,99.999
14:41:16,Stabilising DUT,100,1:38:30,99.999
14:41:31,Stabilising DUT,100,1:38:45,99.999
14:41:46,Stabilising DUT,100,1:39:00,99.999
14:42:01,Stabilising DUT,100,1:39:15,99.999
14:42:16,Stabilising DUT,100,1:39:30,99.999
14:42:31,Stabilising DUT,100,1:39:45,99.999
14:42:46,Stabilising DUT,100,1:40:00,99.999
14:43:01,Stabilising DUT,100,1:40:15,100
14:43:16,Stabilising DUT,100,1:40:30,100.001
14:43:31,Stabilising DUT,100,1:40:45,99.999
14:43:46,Stabilising DUT,100,1:41:00,99.999
14:44:01,Stabilising DUT,100,1:41:15,99.999
14:44:16,Stabilising DUT,100,1:41:30,100
14:44:31,Stabilising DUT,100,1:41:45,99.999
14:44:46,Stabilising DUT,100,1:42:00,100
14:45:01,Stabilising DUT,100,1:42:15,100
14:45:16,Calculate mean,100,1:42:30,100
14:45:31,Calculate mean,100,1:42:45,100
14:45:46,Calculate mean,100,1:43:00,99.999
14:46:01,Calculate mean,100,1:43:15,100
14:46:16,Collecting data,100,1:43:30,100
14:46:31,Approaching Test Point,0,1:43:45,99.987
14:46:46,Approaching Test Point,0,1:44:00,99.565
14:47:01,Approaching Test Point,0,1:44:15,98.624
14:47:16,Approaching Test Point,0,1:44:30,97.27
14:47:31,Approaching Test Point,0,1:44:45,95.813
14:47:46,Approaching Test Point,0,1:45:00,94.344
14:48:01,Approaching Test Point,0,1:45:15,92.798
14:48:16,Approaching Test Point,0,1:45:30,91.404
14:48:31,Approaching Test Point,0,1:45:45,89.911
14:48:46,Approaching Test Point,0,1:46:00,88.543
14:49:01,Approaching Test Point,0,1:46:15,87.148
14:49:16,Approaching Test Point,0,1:46:30,85.778
14:49:31,Approaching Test Point,0,1:46:45,84.474
14:49:46,Approaching Test Point,0,1:47:00,83.113
14:50:01,Approaching Test Point,0,1:47:15,81.904
14:50:16,Approaching Test Point,0,1:47:30,80.636
14:50:31,Approaching Test Point,0,1:47:45,79.386
14:50:46,Approaching Test Point,0,1:48:00,78.152
14:51:01,Approaching Test Point,0,1:48:15,76.937
14:51:16,Approaching Test Point,0,1:48:30,75.742
14:51:31,Approaching Test Point,0,1:48:45,74.556
14:51:46,Approaching Test Point,0,1:49:00,73.391
14:52:01,Approaching Test Point,0,1:49:15,72.238
14:52:16,Approaching Test Point,0,1:49:30,71.106
14:52:31,Approaching Test Point,0,1:49:45,69.994
14:52:46,Approaching Test Point,0,1:50:00,68.851
14:53:01,Approaching Test Point,0,1:50:15,67.816
14:53:16,Approaching Test Point,0,1:50:30,66.695
14:53:31,Approaching Test Point,0,1:50:45,65.632
14:53:46,Approaching Test Point,0,1:51:00,64.603
14:54:01,Approaching Test Point,0,1:51:15,63.556
14:54:16,Approaching Test Point,0,1:51:30,62.555
14:54:31,Approaching Test Point,0,1:51:45,61.499
14:54:46,Approaching Test Point,0,1:52:00,60.534
14:55:01,Approaching Test Point,0,1:52:15,59.527
14:55:16,Approaching Test Point,0,1:52:30,58.544
14:55:31,Approaching Test Point,0,1:52:45,57.6
14:55:46,Approaching Test Point,0,1:53:00,56.609
14:56:01,Approaching Test Point,0,1:53:15,55.718
14:56:16,Approaching Test Point,0,1:53:30,54.756
14:56:31,Approaching Test Point,0,1:53:45,53.821
14:56:46,Approaching Test Point,0,1:54:00,52.956
14:57:01,Approaching Test Point,0,1:54:15,52.052
14:57:16,Approaching Test Point,0,1:54:30,51.161
14:57:31,Approaching Test Point,0,1:54:45,50.277
14:57:46,Approaching Test Point,0,1:55:00,49.405
14:58:01,Approaching Test Point,0,1:55:15,48.546
14:58:16,Approaching Test Point,0,1:55:30,47.695
14:58:31,Approaching Test Point,0,1:55:45,46.853
14:58:46,Approaching Test Point,0,1:56:00,46.022
14:59:01,Approaching Test Point,0,1:56:15,45.218
14:59:16,Approaching Test Point,0,1:56:30,44.374
14:59:31,Approaching Test Point,0,1:56:45,43.58
14:59:46,Approaching Test Point,0,1:57:00,42.792
15:00:01,Approaching Test Point,0,1:57:15,42.003
15:00:16,Approaching Test Point,0,1:57:30,41.242
15:00:31,Approaching Test Point,0,1:57:45,40.448
15:00:46,Approaching Test Point,0,1:58:00,39.709
15:01:01,Approaching Test Point,0,1:58:15,38.953
15:01:16,Approaching Test Point,0,1:58:30,38.203
15:01:31,Approaching Test Point,0,1:58:45,37.482
15:01:46,Approaching Test Point,0,1:59:00,36.727
15:02:01,Approaching Test Point,0,1:59:15,36.053
15:02:16,Approaching Test Point,0,1:59:30,35.319
15:02:31,Approaching Test Point,0,1:59:45,34.612
15:02:46,Approaching Test Point,0,2:00:00,33.927
15:03:01,Approaching Test Point,0,2:00:15,33.238
15:03:16,Approaching Test Point,0,2:00:30,32.572
15:03:31,Approaching Test Point,0,2:00:45,31.871
15:03:46,Approaching Test Point,0,2:01:00,31.232
15:04:01,Approaching Test Point,0,2:01:15,30.588
15:04:16,Approaching Test Point,0,2:01:30,29.935
15:04:31,Approaching Test Point,0,2:01:45,29.292
15:04:46,Approaching Test Point,0,2:02:00,28.656
15:05:01,Approaching Test Point,0,2:02:15,28.028
15:05:16,Approaching Test Point,0,2:02:30,27.403
15:05:31,Approaching Test Point,0,2:02:45,26.787
15:05:46,Approaching Test Point,0,2:03:00,26.174